This is the latest recevied weather packets stored in our database for station/object KC7UNY-13. If no packets are shown the sender has not sent any weather packets the latest 10 day(s).
| Time | Temp. | Humidity | Pressure | Rain* | Wind** | Luminosity | Snow |
|---|---|---|---|---|---|---|---|
| 1777636803 | 17.78° C | 52% | 1010 hPa | 0 mm | - | 0 W/m² | - |
| 1777636500 | 18.33° C | 51% | 1009.9 hPa | 0 mm | - | 0 W/m² | - |
| 1777636196 | 17.78° C | 51% | 1009.9 hPa | 0 mm | - | 0 W/m² | - |
| 1777635890 | 18.33° C | 50% | 1010 hPa | 0 mm | - | 0 W/m² | - |
| 1777635587 | 18.33° C | 50% | 1009.8 hPa | 0 mm | - | 0 W/m² | - |
| 1777635284 | 18.33° C | 49% | 1010 hPa | 0 mm | - | 0 W/m² | - |
| 1777634981 | 18.33° C | 49% | 1009.9 hPa | 0 mm | - | 0 W/m² | - |
| 1777634677 | 18.33° C | 49% | 1009.9 hPa | 0 mm | - | 0 W/m² | - |
| 1777634375 | 18.89° C | 48% | 1009.8 hPa | 0 mm | - | 0 W/m² | - |
| 1777634072 | 18.89° C | 48% | 1009.8 hPa | 0 mm | - | 0 W/m² | - |
| 1777633768 | 18.89° C | 47% | 1009.7 hPa | 0 mm | - | 0 W/m² | - |
| 1777633466 | 18.89° C | 47% | 1009.7 hPa | 0 mm | - | 0 W/m² | - |
| 1777633164 | 18.89° C | 47% | 1009.6 hPa | 0 mm | - | 0 W/m² | - |
| 1777632860 | 18.89° C | 47% | 1009.7 hPa | 0 mm | - | 0 W/m² | - |
| 1777632555 | 18.89° C | 47% | 1009.7 hPa | 0 mm | - | 0 W/m² | - |
| 1777632248 | 18.89° C | 47% | 1009.6 hPa | 0 mm | - | 0 W/m² | - |
| 1777631945 | 18.33° C | 48% | 1009.5 hPa | 0 mm | - | 0 W/m² | - |
| 1777631643 | 18.89° C | 47% | 1009.6 hPa | 0 mm | - | 0 W/m² | - |
| 1777631340 | 18.89° C | 47% | 1009.5 hPa | 0 mm | - | 0 W/m² | - |
| 1777631036 | 18.89° C | 46% | 1009.6 hPa | 0 mm | - | 0 W/m² | - |
| 1777630733 | 19.44° C | 46% | 1009.5 hPa | 0 mm | - | 0 W/m² | - |
| 1777630430 | 19.44° C | 45% | 1009.4 hPa | 0 mm | - | 0 W/m² | - |
| 1777630127 | 19.44° C | 44% | 1009.3 hPa | 0 mm | - | 0 W/m² | - |
| 1777629825 | 18.89° C | 44% | 1009.2 hPa | 0 mm | - | 0 W/m² | - |
| 1777629522 | 18.89° C | 44% | 1009.2 hPa | 0 mm | - | 0 W/m² | - |
* Rain latest hour (hover to see other rain measurements)
** Current wind speed in m/s (hover to see current wind gust speed)